FW6943 Weather Reports


time (UTC)temp
C
wind
direction
speed
KPH
gust
KPH
rain 1hr
cm
rain 24hr
cm
rain mn
cm
humidity
%
barometer
mb
20260503054530 4 222 0.0 0.0 0.00 0.00 0.00 62 981.3
20260503053020 5 222 0.0 0.0 0.00 0.00 0.00 61 981.4
20260503051519 5 222 0.0 0.0 0.00 0.00 0.00 61 981.6
20260503050018 5 222 0.0 3.2 0.00 0.00 0.00 61 981.6
20260503044515 5 222 0.0 1.6 0.00 0.00 0.00 60 981.6
20260503043012 5 222 0.0 0.0 0.00 0.00 0.00 59 981.8
20260503041511 6 222 0.0 0.0 0.00 0.00 0.00 57 982.0
20260503040008 6 222 0.0 0.0 0.00 0.00 0.00 54 982.1
20260503034505 6 222 0.0 0.0 0.00 0.00 0.00 53 982.3
20260503033003 7 222 0.0 0.0 0.00 0.00 0.00 51 982.4
20260503031502 7 222 0.0 0.0 0.00 0.00 0.00 48 982.5
20260503030002 7 222 0.0 0.0 0.00 0.00 0.00 46 982.7
20260503024600 8 222 0.0 0.0 0.00 0.00 0.00 45 982.8
20260503023058 9 222 0.0 0.0 0.00 0.00 0.00 43 982.8
20260503021554 10 222 0.0 0.0 0.00 0.00 0.00 40 982.7
20260503020056 10 222 0.0 1.6 0.00 0.00 0.00 38 982.6
20260503014605 11 222 0.0 1.6 0.00 0.00 0.00 34 982.7
20260503013048 12 222 0.0 1.6 0.00 0.00 0.00 32 982.5
20260503011548 12 222 0.0 0.0 0.00 0.00 0.00 30 982.7
20260503010044 13 222 0.0 3.2 0.00 0.00 0.00 29 982.6
20260503004543 14 222 0.0 4.8 0.00 0.00 0.00 25 982.6
20260503003033 14 211 0.0 6.4 0.00 0.00 0.00 23 982.7
20260503001511 15 241 1.6 8.0 0.00 0.00 0.00 22 982.9
20260503000045 15 290 4.8 14.5 0.00 0.00 0.00 21 983.0
20260502234544 15 288 3.2 9.7 0.00 0.00 0.00 23 983.1
20260502233018 16 279 4.8 20.9 0.00 0.00 0.00 19 983.3
20260502231507 16 250 8.0 32.2 0.00 0.00 0.00 19 983.3
20260502230000 16 255 3.2 16.1 0.00 0.00 0.00 19 983.5
20260502224606 16 254 9.7 17.7 0.00 0.00 0.00 19 983.9
20260502223059 16 280 6.4 24.1 0.00 0.00 0.00 18 983.8
20260502221600 16 260 9.7 19.3 0.00 0.00 0.00 19 983.9
20260502220033 16 301 4.8 17.7 0.00 0.00 0.00 19 984.2
20260502214524 16 301 4.8 19.3 0.00 0.00 0.00 22 984.1
20260502213023 16 304 8.0 20.9 0.00 0.00 0.00 19 984.2
20260502211520 15 254 14.5 25.7 0.00 0.00 0.00 19 984.6
20260502210017 16 5 11.3 20.9 0.00 0.00 0.00 21 984.8
20260502204515 15 282 9.7 25.7 0.00 0.00 0.00 18 984.9
20260502203008 15 274 8.0 25.7 0.00 0.00 0.00 22 985.2
20260502201508 15 274 6.4 20.9 0.00 0.00 0.00 23 985.3
20260502200005 15 316 4.8 17.7 0.00 0.00 0.00 20 985.4
20260502194505 15 300 8.0 22.5 0.00 0.00 0.00 20 985.9
20260502193059 15 302 6.4 17.7 0.00 0.00 0.00 20 986.0
20260502191556 15 209 4.8 16.1 0.00 0.00 0.00 22 986.1
20260502190056 15 261 8.0 22.5 0.00 0.00 0.00 25 986.4
20260502184603 14 281 8.0 19.3 0.00 0.00 0.00 24 986.6
20260502183056 14 343 6.4 17.7 0.00 0.00 0.00 24 986.8
20260502181553 13 258 3.2 12.9 0.00 0.00 0.00 25 986.9
20260502163033 13 252 6.4 17.7 0.00 0.00 0.00 29 987.8
20260502161525 13 275 6.4 19.3 0.00 0.00 0.00 28 987.9
20260502151512 11 345 3.2 17.7 0.00 0.00 0.00 30 988.5
20260502123103 0 111 0.0 0.0 0.00 0.00 0.00 72 989.3
20260502121550 0 107 0.0 0.0 0.00 0.00 0.00 72 989.3
20260502114545 -1 92 0.0 0.0 0.00 0.00 0.00 70 989.1
20260502113044 -1 92 0.0 0.0 0.00 0.00 0.00 69 989.0
20260502111544 -1 102 0.0 0.0 0.00 0.00 0.00 69 989.0
20260502110040 -1 102 0.0 0.0 0.00 0.00 0.00 68 989.1
20260502104539 -1 102 0.0 0.0 0.00 0.00 0.00 68 989.2
20260502103035 -1 102 0.0 0.0 0.00 0.00 0.00 68 989.1
20260502101544 -1 102 0.0 0.0 0.00 0.00 0.00 68 989.0
20260502091530 -1 102 0.0 0.0 0.00 0.00 0.00 67 989.0
20260502071518 -1 102 0.0 0.0 0.00 0.00 0.00 64 988.9